Location: Sigmaringen
(48.0900°N, 9.2120°E)
Time: 06:37:17
(UTC+01:00)

ISS - Visible Passes

Search period start: 21 February 2018 00:00
Search period end: 03 March 2018 00:00
Orbit: 402 x 407 km, 51.6° (Epoch: 21 February)

Date Brightness Start Highest point End Pass type
(mag) Time Alt. Az. Time Alt. Az. Time Alt. Az.
26 Feb -0.9 06:24:21 10° S 06:26:31 17° SE 06:28:41 10° E visible
28 Feb -2.1 06:15:09 10° SSW 06:18:07 32° SE 06:21:05 10° E visible
01 Mar -1.5 05:23:48 11° S 05:25:58 20° SE 05:28:25 10° E visible
02 Mar -0.9 04:33:54 12° SE 04:33:54 12° SE 04:35:07 10° ESE visible
02 Mar -3.4 06:06:35 10° SW 06:09:47 62° SSE 06:13:02 10° ENE visible
